Time,TemperatureF,DewpointF,PressureIn,WindDirection,WindDirectionDegrees,WindSpeedMPH,WindSpeedGustMPH,Humidity,HourlyPrecipIn,Conditions,Clouds,dailyrainin,SoftwareType,DateUTC
2013-03-18 00:00:00,35.2,26.4,30.26,East,93,0.0,0.0,70,0.00,,,0.00,Wunderground v.1.15,2013-03-18 04:00:00,
2013-03-18 00:02:00,35.2,26.4,30.25,East,93,0.0,0.0,70,0.00,,,0.00,Wunderground v.1.15,2013-03-18 04:02:00,
2013-03-18 00:04:00,35.2,26.0,30.25,East,93,0.0,2.0,69,0.00,,,0.00,Wunderground v.1.15,2013-03-18 04:04:00,
2013-03-18 00:10:00,35.1,26.6,30.25,East,93,1.0,1.0,71,0.00,,,0.00,Wunderground v.1.15,2013-03-18 04:10:00,
2013-03-18 00:15:00,35.1,27.0,30.25,SE,142,1.0,3.0,71,0.00,,,0.00,weatherlink.com 1.10,2013-03-18 04:15:00,
2013-03-18 00:21:00,34.8,27.7,30.25,SE,142,1.0,1.0,75,0.00,,,0.00,Wunderground v.1.15,2013-03-18 04:21:00,
2013-03-18 00:27:00,34.6,28.0,30.25,SE,144,1.0,3.0,77,0.00,,,0.00,weatherlink.com 1.10,2013-03-18 04:27:00,
2013-03-18 00:33:00,34.4,28.6,30.26,SE,144,1.0,1.0,79,0.00,,,0.00,Wunderground v.1.15,2013-03-18 04:33:00,
2013-03-18 00:39:00,34.3,28.5,30.25,SE,144,0.0,1.0,79,0.00,,,0.00,Wunderground v.1.15,2013-03-18 04:39:00,
2013-03-18 00:45:00,34.1,28.6,30.26,SE,144,0.0,1.0,80,0.00,,,0.00,Wunderground v.1.15,2013-03-18 04:45:00,
2013-03-18 00:51:00,34.0,28.5,30.26,SE,144,1.0,1.0,80,0.00,,,0.00,Wunderground v.1.15,2013-03-18 04:51:00,
2013-03-18 00:56:00,33.8,28.6,30.26,SE,144,0.0,1.0,81,0.00,,,0.00,Wunderground v.1.15,2013-03-18 04:56:00,
2013-03-18 01:04:00,33.7,28.8,30.26,SE,144,0.0,1.0,82,0.00,,,0.00,Wunderground v.1.15,2013-03-18 05:04:00,
2013-03-18 01:09:00,33.5,28.6,30.26,SE,144,0.0,1.0,82,0.00,,,0.00,Wunderground v.1.15,2013-03-18 05:09:00,
2013-03-18 01:15:00,33.5,29.0,30.26,SE,144,1.0,2.0,83,0.00,,,0.00,weatherlink.com 1.10,2013-03-18 05:15:00,
2013-03-18 01:21:00,33.4,28.8,30.26,SE,144,0.0,1.0,83,0.00,,,0.00,Wunderground v.1.15,2013-03-18 05:21:00,
2013-03-18 01:26:00,33.4,28.8,30.26,SE,144,0.0,1.0,83,0.00,,,0.00,Wunderground v.1.15,2013-03-18 05:26:00,
2013-03-18 01:32:00,33.3,28.7,30.26,SE,144,0.0,1.0,83,0.00,,,0.00,Wunderground v.1.15,2013-03-18 05:32:00,
2013-03-18 01:38:00,33.3,28.7,30.26,SE,144,0.0,1.0,83,0.00,,,0.00,Wunderground v.1.15,2013-03-18 05:38:00,
2013-03-18 01:44:00,33.2,28.6,30.26,SE,144,0.0,2.0,83,0.00,,,0.00,Wunderground v.1.15,2013-03-18 05:44:00,
2013-03-18 01:49:00,33.2,28.9,30.26,SE,144,1.0,2.0,84,0.00,,,0.00,Wunderground v.1.15,2013-03-18 05:49:00,
2013-03-18 01:54:00,33.1,29.1,30.27,SE,144,1.0,2.0,85,0.00,,,0.00,Wunderground v.1.15,2013-03-18 05:54:00,
2013-03-18 02:00:00,33.0,29.0,30.27,SSE,147,1.0,3.0,86,0.00,,,0.00,weatherlink.com 1.10,2013-03-18 06:00:00,
2013-03-18 02:06:00,32.7,29.3,30.27,SSE,147,1.0,1.0,87,0.00,,,0.00,Wunderground v.1.15,2013-03-18 06:06:00,
2013-03-18 02:11:00,32.4,29.2,30.27,SSE,147,1.0,1.0,88,0.00,,,0.00,Wunderground v.1.15,2013-03-18 06:11:00,
2013-03-18 02:17:00,32.2,29.3,30.27,SSE,147,0.0,1.0,89,0.00,,,0.00,Wunderground v.1.15,2013-03-18 06:17:00,
2013-03-18 02:22:00,32.0,29.1,30.26,SSE,147,0.0,1.0,89,0.00,,,0.00,Wunderground v.1.15,2013-03-18 06:22:00,
2013-03-18 02:27:00,31.9,29.3,30.27,SSE,147,0.0,1.0,90,0.00,,,0.00,Wunderground v.1.15,2013-03-18 06:27:00,
2013-03-18 02:32:00,31.7,29.4,30.26,SSE,147,0.0,0.0,91,0.00,,,0.00,Wunderground v.1.15,2013-03-18 06:32:00,
2013-03-18 02:38:00,31.6,29.3,30.27,SSE,147,0.0,0.0,91,0.00,,,0.00,Wunderground v.1.15,2013-03-18 06:38:00,
2013-03-18 02:43:00,31.5,29.2,30.26,SSE,147,0.0,0.0,91,0.00,,,0.00,Wunderground v.1.15,2013-03-18 06:43:00,
2013-03-18 02:49:00,31.4,29.1,30.27,SSE,147,0.0,0.0,91,0.00,,,0.00,Wunderground v.1.15,2013-03-18 06:49:00,
2013-03-18 02:54:00,31.4,29.3,30.26,SSE,147,0.0,0.0,92,0.00,,,0.00,Wunderground v.1.15,2013-03-18 06:54:00,
2013-03-18 02:59:00,31.3,29.2,30.26,SSE,147,0.0,0.0,92,0.00,,,0.00,Wunderground v.1.15,2013-03-18 06:59:00,
2013-03-18 03:04:00,31.3,29.2,30.26,SSE,147,0.0,0.0,92,0.00,,,0.00,Wunderground v.1.15,2013-03-18 07:04:00,
2013-03-18 03:10:00,31.2,29.1,30.26,SSE,147,0.0,0.0,92,0.00,,,0.00,Wunderground v.1.15,2013-03-18 07:10:00,
2013-03-18 03:15:00,31.2,29.0,30.26,SSE,147,0.0,1.0,92,0.00,,,0.00,weatherlink.com 1.10,2013-03-18 07:15:00,
2013-03-18 03:21:00,31.2,29.1,30.26,SSE,147,0.0,0.0,92,0.00,,,0.00,Wunderground v.1.15,2013-03-18 07:21:00,
2013-03-18 03:27:00,31.1,29.3,30.26,SSE,147,0.0,0.0,93,0.00,,,0.00,Wunderground v.1.15,2013-03-18 07:27:00,
2013-03-18 03:32:00,31.1,29.3,30.26,SSE,147,0.0,0.0,93,0.00,,,0.00,Wunderground v.1.15,2013-03-18 07:32:00,
2013-03-18 03:38:00,31.0,29.2,30.26,SSE,147,0.0,1.0,93,0.00,,,0.00,Wunderground v.1.15,2013-03-18 07:38:00,
2013-03-18 03:44:00,31.0,29.2,30.25,SSE,147,0.0,0.0,93,0.00,,,0.00,Wunderground v.1.15,2013-03-18 07:44:00,
2013-03-18 03:49:00,31.0,29.2,30.25,SSE,147,0.0,0.0,93,0.00,,,0.00,Wunderground v.1.15,2013-03-18 07:49:00,
2013-03-18 03:55:00,31.0,29.2,30.25,SSE,147,0.0,0.0,93,0.00,,,0.00,Wunderground v.1.15,2013-03-18 07:55:00,
2013-03-18 04:00:00,31.0,29.0,30.25,SSE,147,0.0,0.0,93,0.00,,,0.00,weatherlink.com 1.10,2013-03-18 08:00:00,
2013-03-18 04:06:00,31.0,29.2,30.25,SSE,147,0.0,0.0,93,0.00,,,0.00,Wunderground v.1.15,2013-03-18 08:06:00,
2013-03-18 04:11:00,30.9,29.1,30.25,SSE,147,0.0,0.0,93,0.00,,,0.00,Wunderground v.1.15,2013-03-18 08:11:00,
2013-03-18 04:16:00,30.9,29.1,30.25,SSE,147,0.0,0.0,93,0.00,,,0.00,Wunderground v.1.15,2013-03-18 08:16:00,
2013-03-18 04:22:00,30.9,29.1,30.25,SSE,147,0.0,0.0,93,0.00,,,0.00,Wunderground v.1.15,2013-03-18 08:22:00,
2013-03-18 04:28:00,30.9,29.4,30.25,SSE,147,0.0,0.0,94,0.00,,,0.00,Wunderground v.1.15,2013-03-18 08:28:00,
2013-03-18 04:33:00,30.9,29.4,30.26,SSE,147,0.0,0.0,94,0.00,,,0.00,Wunderground v.1.15,2013-03-18 08:33:00,
2013-03-18 04:38:00,31.0,29.5,30.26,SSE,147,0.0,0.0,94,0.00,,,0.00,Wunderground v.1.15,2013-03-18 08:38:00,
2013-03-18 04:43:00,30.9,29.4,30.26,SSE,147,0.0,0.0,94,0.00,,,0.00,Wunderground v.1.15,2013-03-18 08:43:00,
2013-03-18 04:49:00,30.9,29.4,30.26,SSE,147,0.0,0.0,94,0.00,,,0.00,Wunderground v.1.15,2013-03-18 08:49:00,
2013-03-18 04:55:00,30.9,29.4,30.26,SSE,147,0.0,0.0,94,0.00,,,0.00,Wunderground v.1.15,2013-03-18 08:55:00,
2013-03-18 05:00:00,30.9,29.4,30.26,SSE,147,0.0,0.0,94,0.00,,,0.00,Wunderground v.1.15,2013-03-18 09:00:00,
2013-03-18 05:06:00,30.9,29.4,30.26,SSE,147,0.0,1.0,94,0.00,,,0.00,Wunderground v.1.15,2013-03-18 09:06:00,
2013-03-18 05:11:00,30.9,29.4,30.26,ESE,120,1.0,2.0,94,0.00,,,0.00,Wunderground v.1.15,2013-03-18 09:11:00,
2013-03-18 05:16:00,30.8,29.3,30.27,ESE,119,1.0,2.0,94,0.00,,,0.00,Wunderground v.1.15,2013-03-18 09:16:00,
2013-03-18 05:21:00,30.7,29.2,30.27,ESE,113,1.0,1.0,94,0.00,,,0.00,Wunderground v.1.15,2013-03-18 09:21:00,
2013-03-18 05:27:00,30.6,29.1,30.27,NE,37,1.0,1.0,94,0.00,,,0.00,Wunderground v.1.15,2013-03-18 09:27:00,
2013-03-18 05:33:00,30.5,29.0,30.27,SE,125,1.0,2.0,94,0.00,,,0.00,weatherlink.com 1.10,2013-03-18 09:33:00,
2013-03-18 05:38:00,30.4,28.9,30.27,SE,134,1.0,3.0,94,0.00,,,0.00,Wunderground v.1.15,2013-03-18 09:38:00,
2013-03-18 05:43:00,30.2,28.7,30.27,SSE,157,1.0,2.0,94,0.00,,,0.00,Wunderground v.1.15,2013-03-18 09:43:00,
2013-03-18 05:49:00,30.1,28.6,30.27,ENE,74,2.0,4.0,94,0.00,,,0.00,Wunderground v.1.15,2013-03-18 09:49:00,
2013-03-18 05:54:00,29.9,28.4,30.27,ESE,107,1.0,2.0,94,0.00,,,0.00,Wunderground v.1.15,2013-03-18 09:54:00,
2013-03-18 05:59:00,29.8,28.3,30.28,East,84,1.0,2.0,94,0.00,,,0.00,Wunderground v.1.15,2013-03-18 09:59:00,
2013-03-18 06:05:00,29.7,28.2,30.28,ESE,106,1.0,1.0,94,0.00,,,0.00,Wunderground v.1.15,2013-03-18 10:05:00,
2013-03-18 06:10:00,29.6,28.1,30.28,ESE,106,1.0,1.0,94,0.00,,,0.00,Wunderground v.1.15,2013-03-18 10:10:00,
2013-03-18 06:15:00,29.6,28.1,30.28,ESE,106,1.0,2.0,94,0.00,,,0.00,Wunderground v.1.15,2013-03-18 10:15:00,
2013-03-18 06:20:00,29.5,28.2,30.28,ESE,106,1.0,1.0,95,0.00,,,0.00,Wunderground v.1.15,2013-03-18 10:20:00,
2013-03-18 06:25:00,29.5,28.2,30.28,ESE,107,1.0,2.0,95,0.00,,,0.00,Wunderground v.1.15,2013-03-18 10:25:00,
2013-03-18 06:32:00,29.4,28.1,30.28,South,173,2.0,2.0,95,0.00,,,0.00,Wunderground v.1.15,2013-03-18 10:32:00,
2013-03-18 06:37:00,29.4,28.1,30.28,SSE,165,2.0,2.0,95,0.00,,,0.00,Wunderground v.1.15,2013-03-18 10:37:00,
2013-03-18 06:43:00,29.4,28.1,30.29,ESE,102,1.0,2.0,95,0.00,,,0.00,Wunderground v.1.15,2013-03-18 10:43:00,
2013-03-18 06:48:00,29.4,28.1,30.29,ESE,102,1.0,2.0,95,0.00,,,0.00,Wunderground v.1.15,2013-03-18 10:48:00,
2013-03-18 06:54:00,29.4,28.1,30.29,ESE,102,1.0,1.0,95,0.00,,,0.00,Wunderground v.1.15,2013-03-18 10:54:00,
2013-03-18 06:59:00,29.4,28.1,30.29,East,91,1.0,2.0,95,0.00,,,0.00,Wunderground v.1.15,2013-03-18 10:59:00,
2013-03-18 07:04:00,29.4,28.1,30.29,East,91,1.0,2.0,95,0.00,,,0.00,Wunderground v.1.15,2013-03-18 11:04:00,
2013-03-18 07:10:00,29.3,28.0,30.29,East,91,1.0,3.0,95,0.00,,,0.00,Wunderground v.1.15,2013-03-18 11:10:00,
2013-03-18 07:16:00,29.2,27.9,30.29,East,92,1.0,3.0,95,0.00,,,0.00,Wunderground v.1.15,2013-03-18 11:16:00,
2013-03-18 07:21:00,29.1,27.8,30.29,East,92,1.0,1.0,95,0.00,,,0.00,Wunderground v.1.15,2013-03-18 11:21:00,
2013-03-18 07:27:00,29.1,27.8,30.29,East,92,1.0,2.0,95,0.00,,,0.00,Wunderground v.1.15,2013-03-18 11:27:00,
2013-03-18 07:32:00,29.1,28.0,30.29,East,92,1.0,3.0,95,0.00,,,0.00,weatherlink.com 1.10,2013-03-18 11:32:00,
2013-03-18 07:38:00,29.1,27.8,30.29,East,92,1.0,3.0,95,0.00,,,0.00,Wunderground v.1.15,2013-03-18 11:38:00,
2013-03-18 07:43:00,29.2,27.9,30.28,East,92,2.0,2.0,95,0.00,,,0.00,Wunderground v.1.15,2013-03-18 11:43:00,
2013-03-18 07:49:00,29.2,27.9,30.29,South,182,2.0,3.0,95,0.00,,,0.00,Wunderground v.1.15,2013-03-18 11:49:00,
2013-03-18 07:55:00,29.2,27.9,30.29,South,182,1.0,2.0,95,0.00,,,0.00,Wunderground v.1.15,2013-03-18 11:55:00,
2013-03-18 08:00:00,29.3,28.0,30.28,South,182,1.0,1.0,95,0.00,,,0.00,Wunderground v.1.15,2013-03-18 12:00:00,
2013-03-18 08:07:00,29.3,28.0,30.28,SE,140,1.0,2.0,95,0.00,,,0.00,Wunderground v.1.15,2013-03-18 12:07:00,
2013-03-18 08:12:00,29.3,28.0,30.28,SSW,192,1.0,5.0,95,0.00,,,0.00,Wunderground v.1.15,2013-03-18 12:12:00,
2013-03-18 08:17:00,29.3,28.0,30.28,SE,138,2.0,5.0,95,0.00,,,0.00,Wunderground v.1.15,2013-03-18 12:17:00,
2013-03-18 08:23:00,29.3,28.0,30.28,South,180,2.0,3.0,95,0.00,,,0.00,Wunderground v.1.15,2013-03-18 12:23:00,
2013-03-18 08:28:00,29.3,28.0,30.28,South,185,2.0,3.0,95,0.00,,,0.00,Wunderground v.1.15,2013-03-18 12:28:00,
2013-03-18 08:34:00,29.4,28.1,30.28,South,185,1.0,2.0,95,0.00,,,0.00,Wunderground v.1.15,2013-03-18 12:34:00,
2013-03-18 08:39:00,29.4,28.1,30.27,South,185,2.0,3.0,95,0.00,,,0.00,Wunderground v.1.15,2013-03-18 12:39:00,
2013-03-18 08:44:00,29.5,28.2,30.27,ESE,108,2.0,2.0,95,0.00,,,0.00,Wunderground v.1.15,2013-03-18 12:44:00,
2013-03-18 08:50:00,29.4,28.1,30.27,SSW,200,2.0,2.0,95,0.00,,,0.00,Wunderground v.1.15,2013-03-18 12:50:00,
2013-03-18 08:55:00,29.5,28.2,30.27,SSE,162,2.0,2.0,95,0.00,,,0.00,Wunderground v.1.15,2013-03-18 12:55:00,
2013-03-18 09:00:00,29.5,28.2,30.27,South,185,2.0,2.0,95,0.00,,,0.00,Wunderground v.1.15,2013-03-18 13:00:00,
2013-03-18 09:06:00,29.5,28.2,30.26,South,179,2.0,4.0,95,0.00,,,0.00,Wunderground v.1.15,2013-03-18 13:06:00,
2013-03-18 09:11:00,29.6,28.1,30.26,South,171,3.0,4.0,94,0.00,,,0.00,Wunderground v.1.15,2013-03-18 13:11:00,
2013-03-18 09:16:00,29.6,28.1,30.26,SE,139,3.0,4.0,94,0.00,,,0.00,Wunderground v.1.15,2013-03-18 13:16:00,
2013-03-18 09:22:00,29.7,28.2,30.26,South,184,2.0,3.0,94,0.00,,,0.00,Wunderground v.1.15,2013-03-18 13:22:00,
2013-03-18 09:28:00,29.7,28.2,30.26,South,169,2.0,3.0,94,0.00,,,0.00,Wunderground v.1.15,2013-03-18 13:28:00,
2013-03-18 09:33:00,29.7,28.2,30.26,South,184,2.0,4.0,94,0.00,,,0.00,Wunderground v.1.15,2013-03-18 13:33:00,
2013-03-18 09:39:00,29.6,27.8,30.25,SE,134,3.0,4.0,93,0.00,,,0.00,Wunderground v.1.15,2013-03-18 13:39:00,
2013-03-18 09:44:00,29.6,27.8,30.25,SE,142,2.0,3.0,93,0.00,,,0.00,Wunderground v.1.15,2013-03-18 13:44:00,
2013-03-18 09:49:00,29.6,27.8,30.24,East,96,2.0,5.0,93,0.00,,,0.00,Wunderground v.1.15,2013-03-18 13:49:00,
2013-03-18 09:54:00,29.6,27.8,30.25,SSE,154,3.0,3.0,93,0.00,,,0.00,Wunderground v.1.15,2013-03-18 13:54:00,
2013-03-18 10:00:00,29.5,27.7,30.25,South,175,3.0,3.0,93,0.00,,,0.00,Wunderground v.1.15,2013-03-18 14:00:00,
2013-03-18 10:06:00,29.5,27.5,30.25,South,169,3.0,3.0,92,0.00,,,0.00,Wunderground v.1.15,2013-03-18 14:06:00,
2013-03-18 10:11:00,29.6,27.8,30.25,SSE,160,2.0,2.0,93,0.00,,,0.00,Wunderground v.1.15,2013-03-18 14:11:00,
2013-03-18 10:16:00,29.7,27.9,30.25,SSE,159,2.0,2.0,93,0.00,,,0.00,Wunderground v.1.15,2013-03-18 14:16:00,
2013-03-18 10:22:00,29.7,27.9,30.24,SE,128,1.0,1.0,93,0.00,,,0.00,Wunderground v.1.15,2013-03-18 14:22:00,
2013-03-18 10:27:00,29.6,27.6,30.23,ESE,123,2.0,2.0,92,0.00,,,0.00,Wunderground v.1.15,2013-03-18 14:27:00,
2013-03-18 10:33:00,29.5,27.7,30.23,South,175,2.0,3.0,93,0.00,,,0.00,Wunderground v.1.15,2013-03-18 14:33:00,
2013-03-18 10:38:00,29.5,27.7,30.22,South,169,3.0,5.0,93,0.00,,,0.00,Wunderground v.1.15,2013-03-18 14:38:00,
2013-03-18 10:43:00,29.5,27.7,30.22,SSE,167,3.0,3.0,93,0.00,,,0.00,Wunderground v.1.15,2013-03-18 14:43:00,
2013-03-18 10:49:00,29.6,27.8,30.22,SE,145,3.0,4.0,93,0.00,,,0.00,Wunderground v.1.15,2013-03-18 14:49:00,
2013-03-18 10:54:00,29.6,27.8,30.22,SE,126,3.0,7.0,93,0.00,,,0.00,Wunderground v.1.15,2013-03-18 14:54:00,
2013-03-18 10:59:00,29.7,27.9,30.23,SE,139,3.0,7.0,93,0.00,,,0.00,Wunderground v.1.15,2013-03-18 14:59:00,
2013-03-18 11:04:00,29.7,27.9,30.23,South,173,3.0,4.0,93,0.00,,,0.00,Wunderground v.1.15,2013-03-18 15:04:00,
2013-03-18 11:10:00,29.8,27.8,30.22,South,175,2.0,5.0,92,0.00,,,0.00,Wunderground v.1.15,2013-03-18 15:10:00,
2013-03-18 11:15:00,29.8,27.5,30.22,SW,231,3.0,5.0,91,0.00,,,0.00,Wunderground v.1.15,2013-03-18 15:15:00,
2013-03-18 11:20:00,29.9,27.3,30.23,SSW,197,4.0,4.0,90,0.00,,,0.00,Wunderground v.1.15,2013-03-18 15:20:00,
2013-03-18 11:25:00,29.9,27.6,30.22,SSE,164,3.0,5.0,91,0.00,,,0.00,Wunderground v.1.15,2013-03-18 15:25:00,
2013-03-18 11:30:00,30.1,27.8,30.22,SSE,167,2.0,2.0,91,0.00,,,0.00,Wunderground v.1.15,2013-03-18 15:30:00,
2013-03-18 11:36:00,30.2,28.0,30.21,SSE,167,3.0,5.0,91,0.00,,,0.00,weatherlink.com 1.10,2013-03-18 15:36:00,
2013-03-18 11:41:00,30.3,27.7,30.22,SSW,202,2.0,3.0,90,0.00,,,0.00,Wunderground v.1.15,2013-03-18 15:41:00,
2013-03-18 11:47:00,30.3,27.7,30.21,South,177,3.0,6.0,90,0.00,,,0.00,Wunderground v.1.15,2013-03-18 15:47:00,
2013-03-18 11:53:00,30.3,27.7,30.21,South,174,3.0,5.0,90,0.00,,,0.00,Wunderground v.1.15,2013-03-18 15:53:00,
2013-03-18 11:59:00,30.4,28.1,30.20,SE,145,3.0,5.0,91,0.00,,,0.00,Wunderground v.1.15,2013-03-18 15:59:00,
2013-03-18 12:04:00,30.5,28.2,30.21,SSE,164,2.0,3.0,91,0.00,,,0.00,Wunderground v.1.15,2013-03-18 16:04:00,
2013-03-18 12:10:00,30.5,28.2,30.21,South,178,2.0,4.0,91,0.00,,,0.00,Wunderground v.1.15,2013-03-18 16:10:00,
2013-03-18 12:15:00,30.5,28.5,30.20,South,178,2.0,4.0,92,0.00,,,0.00,Wunderground v.1.15,2013-03-18 16:15:00,
2013-03-18 12:22:00,30.5,28.5,30.20,South,180,2.0,2.0,92,0.00,,,0.00,Wunderground v.1.15,2013-03-18 16:22:00,
2013-03-18 12:28:00,30.4,28.6,30.20,South,182,2.0,3.0,93,0.00,,,0.00,Wunderground v.1.15,2013-03-18 16:28:00,
2013-03-18 12:33:00,30.5,28.7,30.20,South,182,2.0,3.0,93,0.00,,,0.00,Wunderground v.1.15,2013-03-18 16:33:00,
2013-03-18 12:38:00,30.6,28.8,30.20,South,182,1.0,3.0,93,0.00,,,0.00,Wunderground v.1.15,2013-03-18 16:38:00,
2013-03-18 12:44:00,30.6,29.1,30.19,South,182,1.0,2.0,94,0.00,,,0.00,Wunderground v.1.15,2013-03-18 16:44:00,
2013-03-18 12:50:00,30.7,28.9,30.18,South,182,1.0,6.0,93,0.00,,,0.00,Wunderground v.1.15,2013-03-18 16:50:00,
2013-03-18 12:56:00,30.8,29.3,30.17,South,182,2.0,6.0,94,0.00,,,0.00,Wunderground v.1.15,2013-03-18 16:56:00,
2013-03-18 13:02:00,30.8,29.3,30.18,SSW,207,1.0,2.0,94,0.00,,,0.00,Wunderground v.1.15,2013-03-18 17:02:00,
2013-03-18 13:08:00,30.8,29.3,30.18,South,171,1.0,3.0,94,0.00,,,0.00,Wunderground v.1.15,2013-03-18 17:08:00,
2013-03-18 13:13:00,30.9,29.4,30.17,South,171,1.0,2.0,94,0.00,,,0.00,Wunderground v.1.15,2013-03-18 17:13:00,
2013-03-18 13:19:00,31.0,29.5,30.16,South,171,1.0,2.0,94,0.00,,,0.00,Wunderground v.1.15,2013-03-18 17:19:00,
2013-03-18 13:24:00,31.0,29.5,30.16,South,171,1.0,2.0,94,0.00,,,0.00,Wunderground v.1.15,2013-03-18 17:24:00,
2013-03-18 13:29:00,31.0,29.5,30.16,SSW,196,2.0,3.0,94,0.00,,,0.00,Wunderground v.1.15,2013-03-18 17:29:00,
2013-03-18 13:34:00,31.0,29.5,30.16,SSW,196,2.0,3.0,94,0.00,,,0.01,Wunderground v.1.15,2013-03-18 17:34:00,
2013-03-18 13:40:00,31.0,29.5,30.15,SSE,159,2.0,2.0,94,0.00,,,0.01,Wunderground v.1.15,2013-03-18 17:40:00,
2013-03-18 13:45:00,31.1,29.6,30.14,ESE,119,2.0,3.0,94,0.00,,,0.01,Wunderground v.1.15,2013-03-18 17:45:00,
2013-03-18 13:52:00,31.2,29.7,30.14,SSE,166,2.0,3.0,94,0.00,,,0.01,Wunderground v.1.15,2013-03-18 17:52:00,
2013-03-18 13:57:00,31.2,29.7,30.13,SSE,165,2.0,3.0,94,0.00,,,0.01,Wunderground v.1.15,2013-03-18 17:57:00,
2013-03-18 14:04:00,31.2,29.7,30.13,SE,139,2.0,4.0,94,0.00,,,0.01,Wunderground v.1.15,2013-03-18 18:04:00,
2013-03-18 14:10:00,31.3,30.0,30.12,SSE,167,2.0,4.0,94,0.01,,,0.01,weatherlink.com 1.10,2013-03-18 18:10:00,
2013-03-18 14:17:00,31.4,29.9,30.12,South,186,2.0,4.0,94,0.00,,,0.01,Wunderground v.1.15,2013-03-18 18:17:00,
2013-03-18 14:22:00,31.4,29.9,30.12,South,184,1.0,1.0,94,0.00,,,0.01,Wunderground v.1.15,2013-03-18 18:22:00,
2013-03-18 14:28:00,31.4,29.9,30.11,South,184,1.0,1.0,94,0.00,,,0.01,Wunderground v.1.15,2013-03-18 18:28:00,
2013-03-18 14:33:00,31.4,29.9,30.11,South,190,1.0,3.0,94,0.00,,,0.01,Wunderground v.1.15,2013-03-18 18:33:00,
2013-03-18 14:39:00,31.4,29.9,30.12,South,186,1.0,3.0,94,0.00,,,0.01,Wunderground v.1.15,2013-03-18 18:39:00,
2013-03-18 14:45:00,31.3,29.8,30.11,South,186,1.0,1.0,94,0.00,,,0.01,Wunderground v.1.15,2013-03-18 18:45:00,
2013-03-18 14:50:00,31.4,29.9,30.10,South,186,1.0,1.0,94,0.00,,,0.01,Wunderground v.1.15,2013-03-18 18:50:00,
2013-03-18 14:55:00,31.4,30.1,30.10,South,186,1.0,1.0,95,0.00,,,0.01,Wunderground v.1.15,2013-03-18 18:55:00,
2013-03-18 15:01:00,31.4,30.1,30.10,South,187,1.0,2.0,95,0.00,,,0.01,Wunderground v.1.15,2013-03-18 19:01:00,
2013-03-18 15:06:00,31.3,30.0,30.10,SSW,193,2.0,2.0,95,0.00,,,0.01,Wunderground v.1.15,2013-03-18 19:06:00,
2013-03-18 15:11:00,31.3,30.0,30.09,South,188,2.0,2.0,95,0.00,,,0.01,Wunderground v.1.15,2013-03-18 19:11:00,
2013-03-18 15:17:00,31.3,30.0,30.09,South,188,2.0,3.0,95,0.00,,,0.01,Wunderground v.1.15,2013-03-18 19:17:00,
2013-03-18 15:23:00,31.3,30.0,30.09,South,188,2.0,2.0,95,0.00,,,0.01,Wunderground v.1.15,2013-03-18 19:23:00,
2013-03-18 15:29:00,31.4,30.1,30.08,South,188,1.0,2.0,95,0.00,,,0.01,Wunderground v.1.15,2013-03-18 19:29:00,
2013-03-18 15:34:00,31.4,30.1,30.08,South,186,1.0,2.0,95,0.00,,,0.01,Wunderground v.1.15,2013-03-18 19:34:00,
2013-03-18 15:39:00,31.4,30.1,30.08,South,186,1.0,2.0,95,0.00,,,0.01,Wunderground v.1.15,2013-03-18 19:39:00,
2013-03-18 15:44:00,31.4,30.1,30.08,South,171,2.0,3.0,95,0.00,,,0.01,Wunderground v.1.15,2013-03-18 19:44:00,
2013-03-18 15:49:00,31.4,30.1,30.08,South,180,2.0,4.0,95,0.00,,,0.01,Wunderground v.1.15,2013-03-18 19:49:00,
2013-03-18 15:55:00,31.5,30.2,30.08,South,180,1.0,2.0,95,0.00,,,0.02,Wunderground v.1.15,2013-03-18 19:55:00,
2013-03-18 16:00:00,31.6,30.3,30.08,South,180,1.0,1.0,95,0.13,,,0.03,Wunderground v.1.15,2013-03-18 20:00:00,
2013-03-18 16:06:00,31.6,30.3,30.08,West,277,1.0,2.0,95,0.09,,,0.03,Wunderground v.1.15,2013-03-18 20:06:00,
2013-03-18 16:11:00,31.6,30.3,30.08,WSW,239,1.0,1.0,95,0.05,,,0.03,Wunderground v.1.15,2013-03-18 20:11:00,
2013-03-18 16:16:00,31.7,30.4,30.08,South,186,1.0,2.0,95,0.05,,,0.04,Wunderground v.1.15,2013-03-18 20:16:00,
2013-03-18 16:21:00,31.9,30.6,30.08,South,186,1.0,1.0,95,0.12,,,0.05,Wunderground v.1.15,2013-03-18 20:21:00,
2013-03-18 16:27:00,31.9,30.6,30.07,South,186,1.0,2.0,95,0.07,,,0.06,Wunderground v.1.15,2013-03-18 20:27:00,
2013-03-18 16:32:00,31.7,30.4,30.08,South,186,2.0,3.0,95,0.17,,,0.07,Wunderground v.1.15,2013-03-18 20:32:00,
2013-03-18 16:37:00,31.7,30.4,30.08,South,185,2.0,3.0,95,0.07,,,0.08,Wunderground v.1.15,2013-03-18 20:37:00,
2013-03-18 16:43:00,31.7,30.4,30.08,South,175,1.0,2.0,95,0.17,,,0.09,Wunderground v.1.15,2013-03-18 20:43:00,
2013-03-18 16:49:00,31.8,30.5,30.08,South,175,1.0,2.0,95,0.07,,,0.09,Wunderground v.1.15,2013-03-18 20:49:00,
2013-03-18 16:54:00,31.8,30.5,30.08,South,175,1.0,2.0,95,0.07,,,0.10,Wunderground v.1.15,2013-03-18 20:54:00,
2013-03-18 17:00:00,31.7,30.4,30.07,South,178,2.0,2.0,95,0.10,,,0.11,Wunderground v.1.15,2013-03-18 21:00:00,
2013-03-18 17:06:00,31.7,30.4,30.07,South,175,3.0,3.0,95,0.06,,,0.11,Wunderground v.1.15,2013-03-18 21:06:00,
2013-03-18 17:12:00,31.7,30.4,30.06,South,180,3.0,3.0,95,0.04,,,0.11,Wunderground v.1.15,2013-03-18 21:12:00,
2013-03-18 17:17:00,31.7,30.4,30.06,South,178,2.0,3.0,95,0.00,,,0.11,Wunderground v.1.15,2013-03-18 21:17:00,
2013-03-18 17:22:00,31.7,30.4,30.05,South,172,2.0,2.0,95,0.00,,,0.12,Wunderground v.1.15,2013-03-18 21:22:00,
2013-03-18 17:28:00,31.7,30.4,30.04,South,174,2.0,4.0,95,0.08,,,0.13,Wunderground v.1.15,2013-03-18 21:28:00,
2013-03-18 17:34:00,31.7,30.4,30.04,SSE,157,3.0,5.0,95,0.07,,,0.13,Wunderground v.1.15,2013-03-18 21:34:00,
2013-03-18 17:39:00,31.7,30.4,30.03,South,175,2.0,5.0,95,0.04,,,0.13,Wunderground v.1.15,2013-03-18 21:39:00,
2013-03-18 17:44:00,31.7,30.4,30.02,South,174,2.0,3.0,95,0.00,,,0.13,Wunderground v.1.15,2013-03-18 21:44:00,
2013-03-18 17:49:00,31.7,30.4,30.02,South,171,2.0,3.0,95,0.00,,,0.14,Wunderground v.1.15,2013-03-18 21:49:00,
2013-03-18 17:55:00,31.8,31.0,30.02,South,172,2.0,5.0,95,0.04,,,0.14,weatherlink.com 1.10,2013-03-18 21:55:00,
2013-03-18 18:01:00,31.8,30.5,30.01,South,188,2.0,4.0,95,0.06,,,0.15,Wunderground v.1.15,2013-03-18 22:01:00,
2013-03-18 18:07:00,31.8,30.5,30.00,South,181,2.0,4.0,95,0.06,,,0.15,Wunderground v.1.15,2013-03-18 22:07:00,
2013-03-18 18:13:00,31.7,30.7,30.01,SSE,163,2.0,2.0,96,0.04,,,0.15,Wunderground v.1.15,2013-03-18 22:13:00,
2013-03-18 18:18:00,31.8,30.8,30.02,SSE,163,1.0,2.0,96,0.00,,,0.15,Wunderground v.1.15,2013-03-18 22:18:00,
2013-03-18 18:24:00,31.7,30.4,30.01,SSE,163,1.0,2.0,95,0.00,,,0.15,Wunderground v.1.15,2013-03-18 22:24:00,
2013-03-18 18:29:00,31.7,30.4,30.01,South,176,2.0,3.0,95,0.00,,,0.15,Wunderground v.1.15,2013-03-18 22:29:00,
2013-03-18 18:35:00,31.7,30.7,30.00,South,176,2.0,2.0,96,0.00,,,0.15,Wunderground v.1.15,2013-03-18 22:35:00,
2013-03-18 18:40:00,31.8,30.5,30.01,South,176,1.0,1.0,95,0.00,,,0.15,Wunderground v.1.15,2013-03-18 22:40:00,
2013-03-18 18:45:00,31.8,30.5,30.00,South,176,0.0,1.0,95,0.00,,,0.16,Wunderground v.1.15,2013-03-18 22:45:00,
2013-03-18 18:51:00,31.8,30.5,29.99,South,176,1.0,2.0,95,0.00,,,0.16,Wunderground v.1.15,2013-03-18 22:51:00,
2013-03-18 18:56:00,31.7,30.4,30.00,South,173,2.0,3.0,95,0.00,,,0.16,Wunderground v.1.15,2013-03-18 22:56:00,
2013-03-18 19:01:00,31.7,30.4,30.00,South,173,1.0,1.0,95,0.00,,,0.16,Wunderground v.1.15,2013-03-18 23:01:00,
2013-03-18 19:07:00,31.7,30.4,29.99,SSE,162,0.0,1.0,95,0.00,,,0.16,Wunderground v.1.15,2013-03-18 23:07:00,
2013-03-18 19:12:00,31.7,30.4,29.98,SSE,163,1.0,2.0,95,0.00,,,0.16,Wunderground v.1.15,2013-03-18 23:12:00,
2013-03-18 19:17:00,31.7,30.4,29.99,SSE,163,1.0,2.0,95,0.00,,,0.16,Wunderground v.1.15,2013-03-18 23:17:00,
2013-03-18 19:23:00,31.7,30.4,29.98,SSE,163,1.0,2.0,95,0.00,,,0.16,Wunderground v.1.15,2013-03-18 23:23:00,
2013-03-18 19:29:00,31.7,30.4,29.98,SSE,163,1.0,2.0,95,0.00,,,0.16,Wunderground v.1.15,2013-03-18 23:29:00,
2013-03-18 19:34:00,31.7,30.4,29.98,SSE,163,1.0,1.0,95,0.00,,,0.16,Wunderground v.1.15,2013-03-18 23:34:00,
2013-03-18 19:40:00,31.7,30.4,29.97,SSE,149,1.0,1.0,95,0.00,,,0.16,Wunderground v.1.15,2013-03-18 23:40:00,
2013-03-18 19:46:00,31.7,30.4,29.98,South,172,1.0,2.0,95,0.00,,,0.16,Wunderground v.1.15,2013-03-18 23:46:00,
2013-03-18 19:51:00,31.7,30.7,29.98,East,85,1.0,2.0,96,0.00,,,0.16,Wunderground v.1.15,2013-03-18 23:51:00,
2013-03-18 19:57:00,31.7,30.7,29.98,East,85,1.0,2.0,96,0.00,,,0.16,Wunderground v.1.15,2013-03-18 23:57:00,
2013-03-18 20:02:00,31.8,30.8,29.98,East,85,1.0,2.0,96,0.00,,,0.16,Wunderground v.1.15,2013-03-19 00:02:00,
2013-03-18 20:08:00,31.8,30.8,29.97,East,85,1.0,2.0,96,0.00,,,0.16,Wunderground v.1.15,2013-03-19 00:08:00,
2013-03-18 20:14:00,31.8,30.8,29.98,East,85,1.0,1.0,96,0.00,,,0.16,Wunderground v.1.15,2013-03-19 00:14:00,
2013-03-18 20:20:00,31.8,30.8,29.99,ENE,65,1.0,1.0,96,0.00,,,0.16,Wunderground v.1.15,2013-03-19 00:20:00,
2013-03-18 20:26:00,31.8,31.0,30.00,ENE,65,0.0,2.0,96,0.00,,,0.16,weatherlink.com 1.10,2013-03-19 00:26:00,
2013-03-18 20:31:00,31.8,30.8,29.99,ENE,65,0.0,1.0,96,0.00,,,0.16,Wunderground v.1.15,2013-03-19 00:31:00,
2013-03-18 20:36:00,31.8,30.8,29.98,ENE,65,1.0,2.0,96,0.00,,,0.16,Wunderground v.1.15,2013-03-19 00:36:00,
2013-03-18 20:42:00,31.8,30.8,29.97,ENE,65,1.0,1.0,96,0.00,,,0.16,Wunderground v.1.15,2013-03-19 00:42:00,
2013-03-18 20:47:00,31.8,30.8,29.96,ENE,65,1.0,2.0,96,0.00,,,0.17,Wunderground v.1.15,2013-03-19 00:47:00,
2013-03-18 20:53:00,31.8,30.8,29.96,ENE,65,1.0,1.0,96,0.00,,,0.17,Wunderground v.1.15,2013-03-19 00:53:00,
2013-03-18 20:58:00,31.8,30.8,29.95,ENE,65,1.0,1.0,96,0.00,,,0.17,Wunderground v.1.15,2013-03-19 00:58:00,
2013-03-18 21:04:00,31.8,30.8,29.97,ENE,65,1.0,2.0,96,0.00,,,0.17,Wunderground v.1.15,2013-03-19 01:04:00,
2013-03-18 21:10:00,31.7,30.7,29.96,NE,44,1.0,1.0,96,0.00,,,0.17,Wunderground v.1.15,2013-03-19 01:10:00,
2013-03-18 21:15:00,31.7,30.7,29.95,NE,44,1.0,2.0,96,0.00,,,0.17,Wunderground v.1.15,2013-03-19 01:15:00,
2013-03-18 21:21:00,31.7,30.7,29.95,NE,44,1.0,1.0,96,0.00,,,0.17,Wunderground v.1.15,2013-03-19 01:21:00,
2013-03-18 21:26:00,31.7,30.7,29.95,NE,44,0.0,1.0,96,0.00,,,0.17,Wunderground v.1.15,2013-03-19 01:26:00,
2013-03-18 21:31:00,31.7,30.7,29.95,NE,44,0.0,2.0,96,0.00,,,0.17,Wunderground v.1.15,2013-03-19 01:31:00,
2013-03-18 21:36:00,31.7,30.7,29.94,NE,44,0.0,2.0,96,0.00,,,0.17,Wunderground v.1.15,2013-03-19 01:36:00,
2013-03-18 21:41:00,31.7,30.7,29.94,NE,44,0.0,1.0,96,0.00,,,0.17,Wunderground v.1.15,2013-03-19 01:41:00,
2013-03-18 21:47:00,31.7,30.7,29.94,NE,44,0.0,1.0,96,0.00,,,0.17,Wunderground v.1.15,2013-03-19 01:47:00,
2013-03-18 21:52:00,31.7,30.7,29.93,NE,44,0.0,0.0,96,0.00,,,0.17,Wunderground v.1.15,2013-03-19 01:52:00,
2013-03-18 21:57:00,31.7,30.7,29.93,ENE,74,1.0,2.0,96,0.00,,,0.17,Wunderground v.1.15,2013-03-19 01:57:00,
2013-03-18 22:04:00,31.7,30.7,29.94,ENE,74,1.0,1.0,96,0.00,,,0.17,Wunderground v.1.15,2013-03-19 02:04:00,
2013-03-18 22:10:00,31.7,30.7,29.94,ENE,74,0.0,0.0,96,0.00,,,0.17,Wunderground v.1.15,2013-03-19 02:10:00,
2013-03-18 22:15:00,31.7,31.0,29.94,ENE,74,1.0,1.0,96,0.00,,,0.17,weatherlink.com 1.10,2013-03-19 02:15:00,
2013-03-18 22:21:00,31.7,30.7,29.93,ENE,74,1.0,2.0,96,0.00,,,0.17,Wunderground v.1.15,2013-03-19 02:21:00,
2013-03-18 22:27:00,31.7,30.7,29.91,ENE,74,1.0,2.0,96,0.00,,,0.17,Wunderground v.1.15,2013-03-19 02:27:00,
2013-03-18 22:32:00,31.7,30.7,29.91,ENE,74,1.0,2.0,96,0.00,,,0.17,Wunderground v.1.15,2013-03-19 02:32:00,
2013-03-18 22:37:00,31.7,30.7,29.92,ENE,74,1.0,2.0,96,0.00,,,0.17,Wunderground v.1.15,2013-03-19 02:37:00,
2013-03-18 22:42:00,31.8,30.8,29.92,ENE,74,0.0,2.0,96,0.00,,,0.17,Wunderground v.1.15,2013-03-19 02:42:00,
2013-03-18 22:47:00,31.7,30.7,29.91,ENE,74,1.0,2.0,96,0.00,,,0.17,Wunderground v.1.15,2013-03-19 02:47:00,
2013-03-18 22:53:00,31.7,30.7,29.91,ENE,74,1.0,2.0,96,0.00,,,0.17,Wunderground v.1.15,2013-03-19 02:53:00,
2013-03-18 22:58:00,31.7,30.7,29.91,ENE,74,0.0,2.0,96,0.00,,,0.17,Wunderground v.1.15,2013-03-19 02:58:00,
2013-03-18 23:05:00,31.8,30.8,29.91,ENE,74,0.0,1.0,96,0.00,,,0.17,Wunderground v.1.15,2013-03-19 03:05:00,
2013-03-18 23:10:00,31.7,30.7,29.91,ENE,74,0.0,0.0,96,0.00,,,0.17,Wunderground v.1.15,2013-03-19 03:10:00,
2013-03-18 23:15:00,31.8,31.0,29.91,ENE,74,0.0,1.0,96,0.00,,,0.17,weatherlink.com 1.10,2013-03-19 03:15:00,
2013-03-18 23:21:00,31.8,30.8,29.91,ENE,74,0.0,0.0,96,0.00,,,0.17,Wunderground v.1.15,2013-03-19 03:21:00,
2013-03-18 23:26:00,31.8,30.8,29.91,ENE,74,0.0,0.0,96,0.00,,,0.17,Wunderground v.1.15,2013-03-19 03:26:00,
2013-03-18 23:31:00,31.8,30.8,29.90,ENE,74,0.0,0.0,96,0.00,,,0.17,Wunderground v.1.15,2013-03-19 03:31:00,
2013-03-18 23:37:00,31.8,30.8,29.90,ENE,74,0.0,1.0,96,0.00,,,0.17,Wunderground v.1.15,2013-03-19 03:37:00,
2013-03-18 23:42:00,31.8,30.8,29.90,ENE,74,0.0,0.0,96,0.00,,,0.17,Wunderground v.1.15,2013-03-19 03:42:00,
2013-03-18 23:48:00,31.7,30.7,29.90,ENE,74,0.0,0.0,96,0.00,,,0.17,Wunderground v.1.15,2013-03-19 03:48:00,
2013-03-18 23:54:00,31.8,30.8,29.90,ENE,74,0.0,0.0,96,0.00,,,0.17,Wunderground v.1.15,2013-03-19 03:54:00,
2013-03-18 23:59:00,31.7,30.7,29.90,ENE,74,0.0,0.0,96,0.00,,,0.17,Wunderground v.1.15,2013-03-19 03:59:00,